Epoch 2023 Sept. 13.0 TT = JDT 2460200.5 T 2023 Aug. 6.19302 TT Rudenko q 4.4716852 (2000.0) P Q n 0.02047019 Peri. 291.51626 +0.70015026 -0.30417985 a 13.2349250 Node 91.50085 +0.59257112 +0.75225480 e 0.6621299 Incl. 40.25433 -0.39830778 +0.58445474 P 48.1 >From 52 observations 2023 Sept. 25-2024 Jan. 2, mean residual 0".3.
m1 = 10.5 + 5 log d + 10.0 log r